• In Belarus
  • List of Countries
  • For 7 days
  • Water Temperature
  • Satellite Maps
  • Weather Map
  • Weather Widgets
  • user-avatar
    Login

    Hourly Weather Bihać

    Today, 18 July, Wednesday

    Time Temperature Precipitation Wind Pressure Humidity
    00:00 +17°C° 0 mm 2 mps 709 mmHg 76%
    01:00 +16°C° 0 mm 2 mps 708 mmHg 76%
    02:00 +16°C° 0 mm 1 mps 709 mmHg 74%
    03:00 +16°C° 0 mm 1 mps 709 mmHg 73%
    04:00 +16°C° 0 mm 1 mps 709 mmHg 72%
    05:00 +19°C° 0 mm 1 mps 709 mmHg 69%
    06:00 +20°C° 0 mm 1 mps 709 mmHg 65%
    07:00 +23°C° 0 mm 2 mps 710 mmHg 57%
    08:00 +24°C° 0 mm 2 mps 710 mmHg 51%
    09:00 +26°C° 0 mm 3 mps 710 mmHg 45%
    10:00 +28°C° 0 mm 3 mps 710 mmHg 39%
    11:00 +28°C° 0 mm 4 mps 710 mmHg 38%
    12:00 +28°C° 0 mm 4 mps 710 mmHg 38%
    13:00 +29°C° 0 mm 4 mps 710 mmHg 38%
    14:00 +28°C° 0 mm 4 mps 710 mmHg 41%
    15:00 +28°C° 0 mm 3 mps 710 mmHg 45%
    16:00 +27°C° 0 mm 3 mps 710 mmHg 48%
    17:00 +26°C° 0 mm 3 mps 710 mmHg 55%
    18:00 +24°C° 0 mm 2 mps 709 mmHg 62%
    19:00 +23°C° 0 mm 1 mps 709 mmHg 69%
    20:00 +22°C° 0 mm 1 mps 709 mmHg 70%
    21:00 +20°C° 0 mm 1 mps 709 mmHg 71%
    22:00 +19°C° 0 mm 1 mps 710 mmHg 72%
    23:00 +19°C° 0 mm 1 mps 710 mmHg 73%

    Tomorrow, 19 July, Thursday

    Time Temperature Precipitation Wind Pressure Humidity
    00:00 +18°C° 0 mm 1 mps 710 mmHg 74%
    01:00 +17°C° 0 mm 2 mps 710 mmHg 75%
    02:00 +17°C° 0 mm 2 mps 710 mmHg 74%
    03:00 +17°C° 0 mm 2 mps 709 mmHg 74%
    04:00 +16°C° 0 mm 2 mps 709 mmHg 73%
    05:00 +18°C° 0 mm 2 mps 710 mmHg 70%
    06:00 +20°C° 0 mm 2 mps 710 mmHg 67%
    07:00 +21°C° 0 mm 2 mps 710 mmHg 63%
    08:00 +24°C° 0 mm 2 mps 710 mmHg 57%
    09:00 +26°C° 0 mm 1 mps 711 mmHg 50%
    10:00 +27°C° 0 mm 1 mps 711 mmHg 44%
    11:00 +28°C° 0 mm 2 mps 711 mmHg 42%
    12:00 +29°C° 0 mm 2 mps 711 mmHg 41%
    13:00 +29°C° 0 mm 2 mps 711 mmHg 39%
    14:00 +29°C° 0 mm 2 mps 711 mmHg 41%
    15:00 +29°C° 0 mm 2 mps 711 mmHg 43%
    16:00 +28°C° 0 mm 2 mps 710 mmHg 44%
    17:00 +27°C° 0 mm 2 mps 710 mmHg 52%
    18:00 +25°C° 0 mm 2 mps 710 mmHg 60%
    19:00 +23°C° 0 mm 2 mps 710 mmHg 68%
    20:00 +21°C° 0 mm 2 mps 710 mmHg 68%
    21:00 +20°C° 0 mm 2 mps 710 mmHg 68%
    22:00 +19°C° 0 mm 2 mps 710 mmHg 68%
    23:00 +18°C° 0 mm 2 mps 710 mmHg 68%

    Day after tomorrow, 20 July, Friday

    Time Temperature Precipitation Wind Pressure Humidity
    00:00 +19°C° 0 mm 1 mps 710 mmHg 67%
    01:00 +18°C° 0 mm 1 mps 710 mmHg 67%
    02:00 +18°C° 0 mm 1 mps 710 mmHg 68%
    03:00 +16°C° 0 mm 2 mps 710 mmHg 69%
    04:00 +16°C° 0 mm 2 mps 710 mmHg 69%
    05:00 +18°C° 0 mm 2 mps 710 mmHg 67%
    06:00 +19°C° 0 mm 2 mps 710 mmHg 65%
    07:00 +21°C° 0 mm 2 mps 711 mmHg 63%
    08:00 +24°C° 0 mm 1 mps 711 mmHg 57%
    09:00 +26°C° 0 mm 1 mps 711 mmHg 50%
    10:00 +29°C° 0 mm 1 mps 712 mmHg 44%
    11:00 +29°C° 0 mm 1 mps 712 mmHg 43%
    12:00 +30°C° 0 mm 2 mps 711 mmHg 41%
    13:00 +31°C° 0 mm 2 mps 711 mmHg 40%
    14:00 +30°C° 0 mm 2 mps 711 mmHg 42%
    15:00 +29°C° 0 mm 2 mps 711 mmHg 45%
    16:00 +29°C° 0 mm 2 mps 710 mmHg 47%
    17:00 +27°C° 0 mm 1 mps 710 mmHg 55%
    18:00 +25°C° 0 mm 1 mps 710 mmHg 63%
    19:00 +24°C° 0 mm 1 mps 709 mmHg 71%
    20:00 +22°C° 0 mm 1 mps 709 mmHg 73%
    21:00 +21°C° 0 mm 1 mps 709 mmHg 75%
    22:00 +20°C° 0 mm 1 mps 709 mmHg 77%
    23:00 +20°C° 0 mm 1 mps 709 mmHg 76%

    21 July, Saturday

    Time Temperature Precipitation Wind Pressure Humidity
    00:00 +19°C° 0 mm 1 mps 709 mmHg 75%
    01:00 +19°C° 0 mm 1 mps 709 mmHg 74%
    02:00 +18°C° 0 mm 2 mps 708 mmHg 72%
    03:00 +18°C° 0 mm 2 mps 708 mmHg 70%
    04:00 +18°C° 0 mm 2 mps 708 mmHg 67%
    05:00 +19°C° 0 mm 2 mps 708 mmHg 64%
    06:00 +21°C° 0 mm 2 mps 708 mmHg 61%
    07:00 +24°C° 0 mm 2 mps 708 mmHg 58%
    08:00 +25°C° 0 mm 3 mps 708 mmHg 53%
    09:00 +27°C° 0 mm 3 mps 709 mmHg 47%
    10:00 +29°C° 0 mm 3 mps 709 mmHg 41%
    11:00 +29°C° 0 mm 4 mps 709 mmHg 40%
    12:00 +30°C° 0 mm 4 mps 708 mmHg 39%
    13:00 +30°C° 0 mm 4 mps 708 mmHg 38%
    14:00 +30°C° 0 mm 4 mps 708 mmHg 41%
    15:00 +29°C° 0 mm 4 mps 708 mmHg 43%
    16:00 +29°C° 0 mm 4 mps 708 mmHg 45%
    17:00 +27°C° 0 mm 3 mps 707 mmHg 53%
    18:00 +26°C° 0 mm 3 mps 707 mmHg 61%
    19:00 +24°C° 0 mm 2 mps 707 mmHg 69%
    20:00 +23°C° 0.1 mm 2 mps 707 mmHg 73%
    21:00 +21°C° 0.1 mm 3 mps 706 mmHg 77%
    22:00 +19°C° 0.1 mm 3 mps 706 mmHg 82%
    23:00 +19°C° 0.5 mm 2 mps 706 mmHg 84%

    22 July, Sunday

    Time Temperature Precipitation Wind Pressure Humidity
    00:00 +18°C° 0.5 mm 2 mps 706 mmHg 85%
    01:00 +18°C° 0.5 mm 2 mps 706 mmHg 87%
    02:00 +18°C° 0.3 mm 2 mps 706 mmHg 88%
    03:00 +17°C° 0.3 mm 2 mps 706 mmHg 88%
    04:00 +17°C° 0.3 mm 2 mps 706 mmHg 89%
    05:00 +18°C° 0.5 mm 2 mps 706 mmHg 87%
    06:00 +19°C° 0.5 mm 2 mps 706 mmHg 86%
    07:00 +20°C° 0.5 mm 2 mps 706 mmHg 84%
    08:00 +21°C° 1.5 mm 2 mps 706 mmHg 81%
    09:00 +23°C° 1.5 mm 2 mps 706 mmHg 78%
    10:00 +24°C° 1.5 mm 2 mps 706 mmHg 75%
    11:00 +24°C° 0.9 mm 2 mps 706 mmHg 73%
    12:00 +24°C° 0.9 mm 2 mps 706 mmHg 72%
    13:00 +24°C° 0.9 mm 2 mps 706 mmHg 71%
    14:00 +24°C° 0.5 mm 2 mps 706 mmHg 71%
    15:00 +24°C° 0.5 mm 3 mps 706 mmHg 70%
    16:00 +24°C° 0.5 mm 3 mps 706 mmHg 70%
    17:00 +22°C° 0.1 mm 3 mps 706 mmHg 73%
    18:00 +21°C° 0.1 mm 3 mps 706 mmHg 76%
    19:00 +20°C° 0.1 mm 3 mps 706 mmHg 80%
    20:00 +19°C° 0 mm 3 mps 706 mmHg 80%
    21:00 +18°C° 0 mm 3 mps 706 mmHg 81%
    22:00 +17°C° 0 mm 2 mps 706 mmHg 81%
    23:00 +17°C° 0 mm 2 mps 706 mmHg 81%

    23 July, Monday

    Time Temperature Precipitation Wind Pressure Humidity
    00:00 +17°C° 0 mm 2 mps 706 mmHg 81%
    01:00 +16°C° 0 mm 2 mps 706 mmHg 80%
    02:00 +16°C° 0 mm 2 mps 706 mmHg 81%
    03:00 +16°C° 0 mm 2 mps 706 mmHg 81%
    04:00 +16°C° 0 mm 2 mps 706 mmHg 82%
    05:00 +17°C° 0 mm 3 mps 706 mmHg 79%
    06:00 +17°C° 0 mm 3 mps 707 mmHg 76%
    07:00 +18°C° 0 mm 4 mps 707 mmHg 74%
    08:00 +18°C° 0.1 mm 4 mps 707 mmHg 73%
    09:00 +19°C° 0.1 mm 5 mps 707 mmHg 72%
    10:00 +19°C° 0.1 mm 5 mps 707 mmHg 71%
    11:00 +17°C° 0.2 mm 5 mps 707 mmHg 74%
    12:00 +17°C° 0.2 mm 5 mps 707 mmHg 78%
    13:00 +16°C° 0.2 mm 5 mps 707 mmHg 81%
    14:00 +17°C° 0.3 mm 5 mps 707 mmHg 81%
    15:00 +17°C° 0.3 mm 5 mps 707 mmHg 81%
    16:00 +17°C° 0.3 mm 5 mps 706 mmHg 81%
    17:00 +17°C° 0.2 mm 5 mps 707 mmHg 83%
    18:00 +17°C° 0.2 mm 5 mps 707 mmHg 85%
    19:00 +17°C° 0.2 mm 5 mps 707 mmHg 86%
    20:00 +17°C° 0.1 mm 5 mps 707 mmHg 87%
    21:00 +17°C° 0.1 mm 5 mps 707 mmHg 87%
    22:00 +17°C° 0.1 mm 6 mps 707 mmHg 87%
    23:00 +17°C° 0 mm 5 mps 707 mmHg 87%
    Show more